Regional Weather Roundup
Issued by NWS

Home | Current Version | Previous Version | Text Only | Print | Product List | Glossary On
Versions: 1 2 3 4 5 6 7 8 9 10 11 12 13 14 15 16 17 18 19 20 21 22 23 24 25 26 27 28 29 30 31 32 33 34 35 36 37 38 39 40 41 42 43 44 45 46 47 48 49 50
000
ASUS44 KLIX 281911
RWRLA
LOUISIANA WEATHER ROUNDUP
NATIONAL WEATHER SERVICE NEW ORLEANS LA
200 PM CDT TUE JUL 28 2015

NOTE: "FAIR" INDICATES FEW OR NO CLOUDS BELOW 12,000 FEET WITH NO
      SIGNIFICANT WEATHER AND/OR OBSTRUCTIONS TO VISIBILITY.
      SKY/WX - SKY CONDITION AND SIGNIFICANT WEATHER.
      TMP - AIR TEMPERATURE.    DP   - DEWPOINT TEMPERATURE.
      RH  - RELATIVE HUMIDITY.  PRES - PRESSURE.
      HX  - HEAT INDEX.         WCI  - WIND CHILL INDEX.

*  THESE STATIONS ARE NOT NWS OR FAA STATIONS AND ARE NOT UNDER
   NWS QUALITY CONTROL.

LAZ040-048-061>063-065-066-069-282000-
SOUTHEAST LOUISIANA

CITY           SKY/WX    TMP DP  RH WIND       PRES   REMARKS
N.O. AUDUBON     N/A     96  74  49 MISG        N/A  HX 108
N.O. INTL ARPT MOSUNNY   95  66  38 VRB3      30.00F HX  98
N.O. LAKEFRONT MOSUNNY   96  73  47 NW9       30.01S HX 105
N.O. DOWNTOWN* MOCLDY    91  72  52 CALM      30.01S HX  98
RESERVE*       FAIR      96  67  39 SE8       30.00F HX 100
SLIDELL        SUNNY     95  71  45 S8        29.99F HX 102
BATON ROUGE    PTSUNNY   94  70  45 SW3       30.00F HX 100
BOOTHVILLE     PTSUNNY   89  75  63 N3        30.02S HX  99
BELLE CHASSE   PTSUNNY   92  72  51 VRB3      30.00F HX  99
BOGALUSA*        N/A     95  68  41 SW6       30.02S HX 100
GALLIANO*      NOT AVBL
NEW ROADS*     FAIR     N/A N/A N/A N3        30.00F
GONZALES*      FAIR      94  68  42 SW5       29.99F HX  99
HAMMOND*       PTSUNNY   97  63  32 S6        30.02S HX  98
HOUMA*         MOSUNNY   90  73  58 S6        30.01S HX  98
PORT FOURCHON*   N/A     90  73  58 VRB6      30.02S HX  98

$$

LAZ041-044-053-054-282000-
SOUTHWEST LOUISIANA

CITY           SKY/WX    TMP DP  RH WIND       PRES   REMARKS
LAKE CHARLES   MOSUNNY   94  72  48 VRB7      29.99S HX 102
LAFAYETTE      SUNNY     96  69  41 CALM      30.00F HX 102
PATTERSON      PTSUNNY   84  75  74 S14       30.03S
SALT POINT       N/A     90  75  61 VRB5      30.00S HX 100
NEW IBERIA     PTSUNNY   92  75  57 S9        30.00F HX 103
CHENAULT AIRPK NOT AVBL

$$

LAZ027-028-282000-
CENTRAL LOUISIANA

CITY           SKY/WX    TMP DP  RH WIND       PRES   REMARKS
FORT POLK      SUNNY     92  72  52 VRB6      29.99F HX  99
ALEXANDRIA INT MOSUNNY   94  71  47 VRB3      29.98F HX 101
ALEXANDRIA     SUNNY     98  68  37 CALM      30.00F HX 103

$$

LAZ001-002-282000-
NORTHWEST LOUISIANA

CITY           SKY/WX    TMP DP  RH WIND       PRES   REMARKS
SHREVEPORT       N/A     96  67  38 SW7       29.98F HX 100
BARKSDALE AFB  SUNNY     97  68  38 S6        29.99F HX 101
DTN SHREVEPORT MOSUNNY   95  70  44 VRB7      29.98F HX 101

$$

LAZ014-016-282000-
NORTHEAST LOUISIANA

CITY           SKY/WX    TMP DP  RH WIND       PRES   REMARKS
MONROE         MOSUNNY   96  72  45 SW3       30.00F HX 104
TALLULAH       SUNNY     96  68  39 CALM      30.00F HX 101

$$




USA.gov is the U.S. government's official web portal to all federal, state and local government web resources and services.